Matala Airport

Jump to: basic info | weather | runways | comments

Related pages: nearby airports | nearby navaids | notams | map

Basic information (top)

Codes: FN18
Location: lon -14.727500, lat 15.014000, elev 4,120 ft / 1,256 m msl
Status: small_airport

Weather (top)

Current conditions for Lubango Airport 84nm (156km) W (rec'd 2014/08/20 17:00Z):

FNUB 201700Z 05008KT 9999 SCT030 24/10 Q1023

Airport forecast for Lubango Airport 84nm (156km) W (rec'd 2014/08/20 12:00Z):

TAF FNUB 201100Z 2012/2024 14010KT 9999 FEW022 BKN040 
      TEMPO 2014/2018 20010KT CAVOK 
      BECMG 24005KT FEW015 BKN025

Runways (top)

10/28: 8,015 x 98 ft (2,443 x 30 m) — paved — not lighted

Latest comments (top)

No comments yet for Matala Airport

More... (top)

See also NOTAMs and nearby airports and navaids, or visit the Matala Airport page at the main OurAirports website..